This demonstration page uses our WeatherBlox Daily Observations layout. Learn more.

39.01783, -85.05884

Hourly Observations for November 27, 2019

Temp ( °F °C ) Dew Point ( °F °C ) Humidity (%) Winds ( mph kmh ) Pressure ( in mb ) Visibility ( mi km ) Precip ( " mm )
12:22 am 00:22 Cloudy with Rain 51 10.6 48 8.9 89 89 S 15 24 29.77 1008 5 8.0467 0.07 1.778
12:52 am 00:52 Cloudy with Rain 51 10.6 49 9.4 92 92 S 12 19 29.74 1007 5 8.0467 0.13 3.302
1:52 am 01:52 Cloudy with Light Rain 53 11.7 50 10 89 89 S 16 26 29.69 1005 7 11.26538 0.06 1.524
2:52 am 02:52 Cloudy 52 11.1 49 9.4 89 89 S 21 33 29.64 1004 10 16.0934 0.06 1.524
3:52 am 03:52 Cloudy 54 12.2 51 10.6 90 90 S 14 22 29.61 1003 10 16.0934 0.001 0.001
4:52 am 04:52 Cloudy 55 12.8 52 11.1 90 90 S 22 35 29.56 1001 10 16.0934 0 0
5:20 am 05:20 Cloudy 56 13.3 52 11.1 87 87 S 20 31 29.56 1001 10 16.0934 0 0
5:52 am 05:52 Cloudy with Light Rain 56 13.3 53 11.7 90 90 S 20 31 29.53 1000 8 12.87472 0.001 0.001
6:52 am 06:52 Cloudy 57 13.9 54 12.2 90 90 S 13 20 29.52 1000 10 16.0934 0.001 0.001
7:06 am 07:06 Cloudy with Light Rain 57 13.9 54 12.2 90 90 S 16 26 29.53 1000 7 11.26538 0.001 0.001
7:31 am 07:31 Cloudy with Heavy Rain 57 13.9 53 11.7 87 87 WSW 21 33 29.57 1001 5 8.0467 0.02 0.508
7:48 am 07:48 Mostly Cloudy 55 13 50 10 82 82 WSW 14 22 29.57 1001 10 16.0934 0.05 1.27
7:52 am 07:52 Partly Cloudy 56 13.3 50 10 81 81 WSW 10 17 29.56 1001 10 16.0934 0.05 1.27
8:52 am 08:52 Partly Cloudy 56 13.3 44 6.7 65 65 WSW 16 26 29.59 1002 10 16.0934 0 0
9:52 am 09:52 Mostly Sunny 56 13.3 35 1.7 46 46 WSW 26 43 29.65 1004 10 16.0934 0 0
10:52 am 10:52 Partly Cloudy 51 10.6 32 0 48 48 WSW 23 37 29.74 1007 10 16.0934 0 0
11:52 am 11:52 Cloudy 48 8.9 31 -0.6 52 52 WSW 25 41 29.79 1009 10 16.0934 0 0
12:52 pm 12:52 Mostly Cloudy 48 8.9 29 -1.7 48 48 WSW 26 43 29.8 1009 10 16.0934 0 0
1:52 pm 13:52 Mostly Cloudy 47 8.3 29 -1.7 50 50 WSW 33 54 29.86 1011 10 16.0934 0 0
2:52 pm 14:52 Mostly Cloudy 46 7.8 28 -2.2 50 50 W 24 39 29.9 1013 10 16.0934 0 0
3:52 pm 15:52 Mostly Cloudy 45 7.2 28 -2.2 52 52 W 26 43 29.94 1014 10 16.0934 0 0
4:52 pm 16:52 Mostly Cloudy 44 6.7 28 -2.2 53 53 W 25 41 29.99 1016 10 16.0934 0 0
5:52 pm 17:52 Mostly Cloudy 44 6.7 28 -2.2 53 53 W 21 33 30.03 1017 10 16.0934 0 0
6:52 pm 18:52 Cloudy 44 6.7 29 -1.7 55 55 W 20 31 30.06 1018 10 16.0934 0 0
7:52 pm 19:52 Mostly Cloudy 43 6.1 29 -1.7 58 58 W 17 28 30.1 1019 10 16.0934 0 0
8:52 pm 20:52 Mostly Cloudy 41 5 27 -2.8 57 57 W 21 33 30.13 1020 10 16.0934 0 0
9:52 pm 21:52 Cloudy 41 5 28 -2.2 60 60 W 24 39 30.16 1021 10 16.0934 0 0
10:52 pm 22:52 Cloudy 41 5 28 -2.2 60 60 W 18 30 30.2 1023 10 16.0934 0 0
11:52 pm 23:52 Cloudy 40 4.4 28 -2.2 63 63 NW 20 31 30.23 1024 10 16.0934 0 0

Powered by AerisWeather